Location: Songkhla
(7.2000°N, 100.6000°E)
Time: 09:53:54
(UTC+07:00)

First-Move - Pass Details

Date: 30 July 2021
Orbit: 576 x 665 km, 97.6° (Epoch: 24 September)

Event Time Altitude Azimuth Distance (km) Brightness Sun altitude
Rises 04:27:17 0° 19° (NNE) 2,955 ? -24.8°
Reaches altitude 10° 04:29:30 10° 23° (NNE) 2,056 ? -24.3°
Maximum altitude 04:33:55 55° 101° (E) 790 ? -23.3°
Enters shadow 04:36:43 22° 172° (S) 1,446 ? -22.6°
